[[{"header":{"parameterUnit":"m.s-1","parameterCategory":1,"la1":30.2991,"la2":30.254,"lo1":-89.0895,"lo2":-89.0444,"dy":0.0017,"dx":0.0017,"nx":28,"ny":28,"refTime":"2023-11-11T03:00:00:Z","depth":0,"parameterNumber":2,"parameterNumberName":"U-component_of_WINDS"},"data":[0,0,0,0,0,0,0,0,0,0,0,0,0,0,0,0,0,0,0,0,0,0,0,0,0,0,0,0,0,0,0,0,0,0,0,0,0,0,0,0,0,0,0,0,0,0,0,0,0,0,0,0,0,0,0,0,0,0,-2.2878,-2.2879,0,-2.2987,-2.2989,-2.299,-2.2956,-2.2954,-2.2952,-2.295,-2.3066,-2.3071,-2.3076,0,0,0,0,0,0,0,0,0,0,0,0,0,-2.2642,-2.2647,-2.2878,-2.2879,-2.288,-2.2987,-2.2989,-2.299,-2.2957,-2.2954,-2.2951,-2.2949,-2.3064,-2.307,-2.3076,0,0,0,0,0,0,0,0,0,0,0,0,0,-2.2748,-2.2648,-2.2877,-2.2876,-2.2877,-2.2987,-2.2989,-2.2991,-2.2957,-2.2954,-2.295,-2.2947,-2.3062,-2.307,-2.3077,-2.3195,0,0,-2.3101,-2.3105,0,0,0,0,0,0,0,0,-2.2742,-2.2756,-2.2875,-2.2877,-2.2878,-2.2955,-2.2948,-2.3059,-2.2958,-2.2927,-2.295,-2.2946,-2.3032,-2.3042,-2.307,-2.3201,-2.3206,-2.3102,-2.3107,-2.311,-2.3112,0,0,0,0,0,0,0,-2.2735,-2.2751,-2.2921,-2.2877,-2.2879,-2.2872,-2.2883,-2.2969,-2.2998,-2.293,-2.2927,-2.2941,-2.3032,-2.3063,-2.3073,-2.3207,-2.3102,-2.3109,-2.3114,-2.3117,-2.3441,-2.3445,0,0,0,0,0,0,-2.2726,-2.2746,-2.2918,-2.2924,-2.28,-2.2879,-2.2891,-2.2934,-2.2997,-2.3003,-2.2944,-2.2939,-2.3051,-2.3064,-2.3077,-2.322,-2.311,-2.3117,-2.3122,-2.3437,-2.3442,-2.3446,0,0,0,0,0,0,-2.2721,-2.2741,-2.2913,-2.2834,-2.2856,-2.2886,-2.2934,-2.2938,-2.2968,-2.3007,-2.3012,-2.297,-2.3049,-2.3066,-2.3166,-2.3223,-2.3121,-2.3128,-2.3432,-2.3438,-2.3444,-2.3507,0,0,0,0,0,0,-2.2714,-2.274,-2.2784,-2.2836,-2.286,-2.3,-2.2938,-2.2942,-2.2982,-2.2976,-2.3033,-2.3039,-2.3047,-2.3154,-2.3174,-2.3232,-2.3134,-2.3427,-2.3435,-2.3442,-2.35,-2.3514,-2.3526,0,0,0,0,0,-2.2706,-2.2798,-2.2787,-2.2808,-2.2916,-2.3003,-2.3017,-2.3024,-2.2986,-2.3032,-2.3057,-2.3037,-2.3213,-2.3165,-2.3186,-2.3248,-2.3424,-2.3433,-2.3441,-2.3494,-2.3511,-2.3526,0,0,0,0,0,0,-2.2755,-2.2805,-2.2793,-2.2904,-2.295,-2.2997,-2.3055,-2.3042,-2.31,-2.3093,-2.3099,-2.3113,-2.3216,-2.3242,-2.3187,-2.3366,-2.3313,-2.3327,-2.3346,-2.3362,-2.3375,-2.3368,-2.3141,0,0,0,0,0,-2.2778,-2.2843,-2.2884,-2.2979,-2.3002,-2.3025,-2.3063,-2.3064,-2.3112,-2.3131,-2.3163,-2.3211,-2.3277,-2.3321,-2.3384,-2.3502,-2.3515,-2.3555,-2.3569,-2.3579,-2.3592,-2.3657,-2.3676,-2.3475,-2.3475,-2.3474,0,0,-2.2828,-2.2863,-2.2904,-2.2989,-2.3025,-2.3094,-2.3041,-2.3116,-2.3168,-2.3143,-2.324,-2.3265,-2.3319,-2.3429,-2.3479,-2.3454,-2.365,-2.359,-2.3599,-2.3605,-2.3668,-2.3687,-2.3704,-2.3481,-2.348,-2.3479,0,0,-2.2953,-2.2986,-2.3069,-2.3105,-2.3158,-2.3173,-2.3192,-2.3242,-2.3258,-2.3355,-2.3337,-2.3399,-2.3513,-2.3552,-2.3587,-2.3727,-2.3712,-2.3747,-2.3817,-2.3881,-2.3897,-2.3911,-2.3962,-2.3981,-2.3759,-2.3759,-2.3759,0,-2.3009,-2.3111,-2.3113,-2.319,-2.3228,-2.3207,-2.3292,-2.3327,-2.3399,-2.3426,-2.3396,-2.3538,-2.3573,-2.3693,-2.3727,-2.3755,-2.3779,-2.3742,-2.3894,-2.3908,-2.3922,-2.3971,-2.399,-2.3763,-2.3763,-2.3762,-2.3762,0,-2.3177,-2.3248,-2.3308,-2.3377,-2.3422,-2.3502,-2.3518,-2.3563,-2.356,-2.3578,-2.3677,-2.3718,-2.3789,-2.3817,-2.3815,-2.3937,-2.3919,-2.3892,-2.3839,-2.3945,-2.3991,-2.401,-2.3769,-2.3767,-2.3766,-2.3765,0,0,-2.3339,-2.3406,-2.3429,-2.346,-2.3517,-2.3572,-2.3652,-2.372,-2.3759,-2.3809,-2.3877,-2.3973,-2.3948,-2.3987,-2.3989,-2.4045,-2.4155,-2.4011,-2.4012,-2.4038,-2.4293,-2.4315,-2.4336,-2.4144,-2.4148,-2.4151,-2.4289,0,-2.347,-2.3609,-2.3613,-2.374,-2.3807,-2.3787,-2.3856,-2.3899,-2.3917,-2.3977,-2.3998,-2.4066,-2.4027,-2.4051,-2.4105,-2.413,-2.4207,-2.412,-2.4209,-2.4212,-2.4198,-2.436,-2.4384,-2.4512,-2.4307,-2.431,-2.4312,0,-2.3643,-2.3697,-2.3831,-2.3878,-2.3906,-2.3968,-2.4031,-2.4088,-2.4137,-2.4146,-2.419,-2.4184,-2.4266,-2.4209,-2.4323,-2.4264,-2.4301,-2.4318,-2.4323,-2.4334,-2.427,-2.4377,-2.4553,-2.4573,-2.434,-2.4338,-2.4336,0,-2.375,-2.3856,-2.395,-2.3976,-2.4034,-2.4078,-2.4104,-2.4149,-2.419,-2.4245,-2.4272,-2.4336,-2.4372,-2.4423,-2.4434,-2.4391,-2.4549,-2.4493,-2.4561,-2.4561,-2.4597,-2.4595,-2.4784,-2.4617,-2.4617,-2.4616,-2.4616,0,-2.3898,-2.3981,-2.3998,-2.4056,-2.4148,-2.4153,-2.4244,-2.4267,-2.4307,-2.437,-2.4357,-2.4416,-2.4427,-2.4489,-2.4499,-2.4593,-2.4609,-2.462,-2.4622,-2.4622,-2.4621,-2.4648,-2.464,-2.4622,-2.462,-2.4619,-2.4618,0,-2.4033,-2.4048,-2.4149,-2.4194,-2.4207,-2.4274,-2.4313,-2.4369,-2.4385,-2.4465,-2.4484,-2.451,-2.4583,-2.4599,-2.4685,-2.4691,-2.4803,-2.4796,-2.4787,-2.4787,-2.4855,-2.4849,-2.5069,-2.5099,-2.4911,-2.4913,-2.4914,0,-2.4127,-2.4191,-2.4242,-2.4283,-2.4311,-2.4376,-2.4417,-2.4424,-2.4467,-2.4527,-2.4576,-2.4647,-2.4704,-2.4821,-2.4848,-2.4914,-2.4909,-2.4982,-2.4919,-2.4918,-2.4913,-2.4909,-2.4916,-2.4995,-2.4997,-2.4998,-2.5,0,-2.4294,-2.4298,-2.4357,-2.4419,-2.4469,-2.4518,-2.4565,-2.4599,-2.4612,-2.4662,-2.4735,-2.4779,-2.4867,-2.4938,-2.5004,-2.5032,-2.5019,-2.5018,-2.5038,-2.504,-2.5033,-2.504,-2.4822,-2.5014,-2.5013,-2.5012,-2.5011,-2.501,-2.4413,-2.4469,-2.4513,-2.458,-2.4616,-2.466,-2.4715,-2.4737,-2.4798,-2.4869,-2.4869,-2.495,-2.4997,-2.5084,-2.5116,-2.5179,-2.5157,-2.5185,-2.5193,-2.52,-2.5207,-2.5021,-2.5191,-2.5191,-2.5191,-2.519,-2.519,0,-2.4581,-2.4608,-2.4669,-2.4735,-2.4787,-2.4768,-2.4819,-2.4865,-2.4935,-2.498,-2.5036,-2.512,-2.5189,-2.5221,-2.5289,-2.5334,-2.533,-2.5352,-2.535,-2.5357,-2.5222,-2.5199,-2.5354,-2.5354,-2.5354,-2.5354,-2.5354,-2.5354,-2.4674,-2.4767,-2.4776,-2.4887,-2.4914,-2.4992,-2.5023,-2.5064,-2.5099,-2.5194,-2.525,-2.527,-2.531,-2.5381,-2.5443,-2.5451,-2.5477,-2.5503,-2.5508,-2.5382,-2.5366,-2.535,-2.5329,-2.5508,-2.5508,-2.5637,-2.5638,-2.5639]},{"header":{"parameterUnit":"m.s-1","parameterCategory":1,"la1":30.2991,"la2":30.254,"lo1":-89.0895,"lo2":-89.0444,"dy":0.0017,"dx":0.0017,"nx":28,"ny":28,"refTime":"2023-11-11T03:00:00:Z","depth":0,"parameterNumber":3,"parameterNumberName":"V-component_of_WINDS"},"data":[0,0,0,0,0,0,0,0,0,0,0,0,0,0,0,0,0,0,0,0,0,0,0,0,0,0,0,0,0,0,0,0,0,0,0,0,0,0,0,0,0,0,0,0,0,0,0,0,0,0,0,0,0,0,0,0,0,0,-3.248,-3.248,0,-3.2488,-3.2488,-3.2488,-3.2454,-3.2453,-3.2452,-3.2451,-3.2458,-3.2459,-3.246,0,0,0,0,0,0,0,0,0,0,0,0,0,-3.2436,-3.2437,-3.248,-3.248,-3.2481,-3.2488,-3.2488,-3.2488,-3.2454,-3.2453,-3.2452,-3.2451,-3.2458,-3.2459,-3.246,0,0,0,0,0,0,0,0,0,0,0,0,0,-3.245,-3.2437,-3.248,-3.2465,-3.2463,-3.2488,-3.2488,-3.2488,-3.2455,-3.2453,-3.2452,-3.245,-3.2457,-3.2459,-3.246,-3.25,0,0,-3.2465,-3.2466,0,0,0,0,0,0,0,0,-3.245,-3.2452,-3.2467,-3.2466,-3.2464,-3.2468,-3.2474,-3.2492,-3.2455,-3.2458,-3.2451,-3.245,-3.2463,-3.2464,-3.2468,-3.25,-3.25,-3.2466,-3.2467,-3.2467,-3.2468,0,0,0,0,0,0,0,-3.2449,-3.2452,-3.2483,-3.2467,-3.2466,-3.2457,-3.2457,-3.2478,-3.2468,-3.2457,-3.2455,-3.2456,-3.2462,-3.2467,-3.2468,-3.2501,-3.2465,-3.2467,-3.2468,-3.2469,-3.2564,-3.2565,0,0,0,0,0,0,-3.245,-3.2451,-3.2483,-3.2483,-3.2453,-3.2459,-3.2459,-3.2469,-3.2468,-3.2467,-3.2458,-3.2455,-3.2465,-3.2466,-3.2468,-3.2513,-3.2467,-3.2469,-3.247,-3.2562,-3.2564,-3.2566,0,0,0,0,0,0,-3.2449,-3.2453,-3.2483,-3.2466,-3.247,-3.2461,-3.2472,-3.247,-3.2475,-3.2468,-3.2466,-3.2465,-3.2464,-3.2466,-3.2492,-3.2513,-3.2469,-3.2471,-3.256,-3.2563,-3.2565,-3.2605,0,0,0,0,0,0,-3.2448,-3.2453,-3.2468,-3.2467,-3.2471,-3.2507,-3.2473,-3.2471,-3.2478,-3.2474,-3.2474,-3.2473,-3.2463,-3.249,-3.2494,-3.2515,-3.2472,-3.2558,-3.2561,-3.2564,-3.2602,-3.2608,-3.2614,0,0,0,0,0,-3.2446,-3.2479,-3.2469,-3.2473,-3.249,-3.2508,-3.251,-3.2498,-3.248,-3.2494,-3.249,-3.2473,-3.251,-3.2493,-3.2497,-3.2519,-3.2557,-3.2561,-3.2564,-3.2599,-3.2607,-3.2614,0,0,0,0,0,0,-3.2483,-3.2479,-3.2468,-3.2501,-3.2505,-3.2502,-3.2521,-3.2507,-3.2516,-3.2512,-3.2496,-3.2497,-3.2525,-3.2525,-3.2505,-3.2556,-3.253,-3.2535,-3.2556,-3.2563,-3.2569,-3.2569,-3.2474,0,0,0,0,0,-3.2496,-3.2511,-3.2506,-3.2536,-3.2539,-3.253,-3.2537,-3.2527,-3.2531,-3.2532,-3.253,-3.2534,-3.2546,-3.2555,-3.2566,-3.2601,-3.26,-3.2618,-3.2625,-3.263,-3.2634,-3.2651,-3.2659,-3.2577,-3.2577,-3.2577,0,0,-3.2521,-3.252,-3.2531,-3.2544,-3.2546,-3.2562,-3.2531,-3.255,-3.2561,-3.2535,-3.2559,-3.2558,-3.2561,-3.2591,-3.2605,-3.2592,-3.2656,-3.2634,-3.2638,-3.2639,-3.2656,-3.2664,-3.267,-3.258,-3.2579,-3.2579,0,0,-3.2574,-3.2576,-3.2601,-3.2603,-3.2606,-3.26,-3.2606,-3.2605,-3.2603,-3.2627,-3.2607,-3.262,-3.2642,-3.2645,-3.2649,-3.2703,-3.2687,-3.2707,-3.2739,-3.2757,-3.2763,-3.2769,-3.2787,-3.2794,-3.2711,-3.2711,-3.2711,0,-3.2605,-3.2629,-3.2615,-3.2635,-3.264,-3.2617,-3.2642,-3.2645,-3.2651,-3.2656,-3.2641,-3.2667,-3.2668,-3.2698,-3.2711,-3.2716,-3.2722,-3.2707,-3.2763,-3.2769,-3.2774,-3.2791,-3.2798,-3.2713,-3.2713,-3.2713,-3.2713,0,-3.2666,-3.2683,-3.2702,-3.2709,-3.2717,-3.2739,-3.2728,-3.2738,-3.2727,-3.2722,-3.2746,-3.2745,-3.2756,-3.2762,-3.2752,-3.2791,-3.2783,-3.2766,-3.274,-3.2784,-3.28,-3.2807,-3.2717,-3.2716,-3.2715,-3.2715,0,0,-3.2744,-3.2742,-3.2749,-3.2752,-3.2753,-3.2765,-3.2786,-3.2796,-3.2804,-3.2809,-3.2825,-3.2844,-3.2828,-3.2833,-3.2823,-3.2839,-3.288,-3.282,-3.2819,-3.283,-3.2922,-3.2934,-3.2942,-3.287,-3.2871,-3.2872,-3.2921,0,-3.2796,-3.2831,-3.2818,-3.2854,-3.2868,-3.2846,-3.2864,-3.2866,-3.2862,-3.2873,-3.2868,-3.2881,-3.286,-3.2863,-3.2877,-3.2872,-3.2898,-3.2868,-3.2884,-3.2885,-3.2883,-3.2951,-3.2964,-3.3011,-3.2928,-3.2929,-3.293,0,-3.2861,-3.2869,-3.2906,-3.2903,-3.2909,-3.2925,-3.2933,-3.2944,-3.2946,-3.2942,-3.2947,-3.2933,-3.2952,-3.2926,-3.2952,-3.2932,-3.2938,-3.2936,-3.2938,-3.2938,-3.291,-3.2952,-3.3025,-3.3032,-3.2939,-3.2939,-3.2938,0,-3.2913,-3.2932,-3.2957,-3.2959,-3.2958,-3.2969,-3.2969,-3.297,-3.2976,-3.2983,-3.2986,-3.2995,-3.3,-3.3007,-3.2996,-3.2978,-3.3023,-3.2996,-3.3019,-3.302,-3.303,-3.3029,-3.3104,-3.3034,-3.3034,-3.3034,-3.3034,0,-3.2972,-3.2995,-3.298,-3.2995,-3.302,-3.3005,-3.303,-3.3027,-3.3028,-3.3041,-3.3023,-3.3036,-3.302,-3.3032,-3.3023,-3.3045,-3.3048,-3.3044,-3.3042,-3.3046,-3.3046,-3.3049,-3.3045,-3.3036,-3.3036,-3.3035,-3.3035,0,-3.3034,-3.3025,-3.305,-3.3046,-3.3045,-3.3064,-3.306,-3.3073,-3.3067,-3.3085,-3.3088,-3.3078,-3.3091,-3.308,-3.3092,-3.3086,-3.3116,-3.3109,-3.3115,-3.3113,-3.3136,-3.3134,-3.3215,-3.3225,-3.315,-3.315,-3.3151,0,-3.3073,-3.309,-3.3087,-3.3095,-3.3096,-3.3109,-3.3115,-3.3101,-3.3108,-3.3111,-3.3124,-3.3135,-3.3142,-3.3163,-3.3157,-3.3166,-3.3159,-3.3187,-3.316,-3.3163,-3.3158,-3.3157,-3.3158,-3.3192,-3.3193,-3.3193,-3.3194,0,-3.3141,-3.3135,-3.3145,-3.3153,-3.3161,-3.3166,-3.317,-3.3178,-3.3163,-3.3172,-3.3185,-3.3191,-3.3203,-3.3213,-3.322,-3.3219,-3.3204,-3.3203,-3.3208,-3.3212,-3.3215,-3.3213,-3.3129,-3.3201,-3.32,-3.3199,-3.3199,-3.3199,-3.3192,-3.3205,-3.3206,-3.3217,-3.3218,-3.3222,-3.3234,-3.3229,-3.3239,-3.3248,-3.3239,-3.3254,-3.3254,-3.3262,-3.3263,-3.3274,-3.3263,-3.3271,-3.3273,-3.3275,-3.3278,-3.3214,-3.3275,-3.3275,-3.3275,-3.3275,-3.3275,0,-3.3258,-3.3257,-3.3267,-3.3273,-3.3282,-3.3267,-3.327,-3.3279,-3.3292,-3.3293,-3.3301,-3.3315,-3.3325,-3.332,-3.3328,-3.3338,-3.3331,-3.3341,-3.334,-3.334,-3.3288,-3.3282,-3.3346,-3.3346,-3.3346,-3.3346,-3.3346,-3.3346,-3.3294,-3.3316,-3.331,-3.3333,-3.3331,-3.3345,-3.3348,-3.3352,-3.3353,-3.3369,-3.3377,-3.3373,-3.3372,-3.338,-3.3389,-3.3387,-3.3391,-3.3402,-3.3398,-3.335,-3.3343,-3.3337,-3.3331,-3.3404,-3.3404,-3.3448,-3.3448,-3.3449]}]]